This demonstration page uses our WeatherBlox Daily Observations layout. Learn more.

Left ArrowRight Arrow

34.74481, -87.66753

Hourly Observations for October 25, 2019

Temp ( °F °C ) Dew Point ( °F °C ) Humidity (%) Winds ( mph kmh ) Pressure ( in mb ) Visibility ( mi km ) Precip ( " mm )
12:53 am 00:53 Clear 54 12.2 49 9.4 83 83 Calm 30.19 1022 10 16 0.00 0.00
1:53 am 01:53 Clear 53 11.7 49 9.4 86 86 Calm 30.17 1022 10 16 0.00 0.00
2:53 am 02:53 Mostly Clear 54 12.2 50 10 87 87 Calm 30.18 1022 10 16 0.00 0.00
3:53 am 03:53 Mostly Clear 56 13.3 51 10.6 84 84 Calm 30.16 1021 10 16 0.00 0.00
4:53 am 04:53 Partly Cloudy 58 14.4 48 8.9 70 70 ENE 5 7 30.15 1021 10 16 0.00 0.00
5:53 am 05:53 Mostly Cloudy with Light Rain 55 12.8 52 11.1 90 90 Calm 30.16 1022 10 16 0.00 0.00
6:53 am 06:53 Cloudy with Light Rain 57 13.9 51 10.6 81 81 E 6 9 30.16 1021 10 16 0.01 0.25
7:53 am 07:53 Partly Cloudy 58 14.4 50 10 75 75 NE 8 13 30.16 1021 10 16 0.00 0.00
8:53 am 08:53 Cloudy with Light Rain 59 15 51 10.6 75 75 ENE 5 7 30.19 1022 10 16 0.00 0.00
9:12 am 09:12 Cloudy with Light Rain 59 15 52 11.1 78 78 ENE 5 7 30.18 1022 10 16 0.00 0.00
9:53 am 09:53 Mostly Cloudy with Light Rain 59 15 53 11.7 81 81 E 6 9 30.17 1022 10 16 0.02 0.51
10:53 am 10:53 Cloudy with Light Rain 59 15 55 12.8 87 87 ESE 3 6 30.19 1022 10 16 0.01 0.25
11:53 am 11:53 Cloudy with Light Rain 60 15.6 56 13.3 86 86 ENE 8 13 30.14 1021 10 16 0.02 0.51
12:53 pm 12:53 Cloudy with Rain 60 15.6 57 13.9 90 90 E 6 9 30.13 1020 5 8 0.08 2.03
1:53 pm 13:53 Cloudy with Rain 61 16.1 58 14.4 90 90 NE 7 11 30.09 1019 5 8 0.13 3.30
2:53 pm 14:53 Cloudy with Rain 61 16.1 58 14.4 90 90 E 9 15 30.07 1018 6 10 0.05 1.27
3:03 pm 15:03 Cloudy with Rain 61 16.1 59 15 93 93 ENE 7 11 30.09 1019 5 8 0.02 0.51
3:24 pm 15:24 Cloudy with Rain 61 16.1 59 15 93 93 ENE 10 17 30.03 1017 4 6 0.07 1.78
3:53 pm 15:53 Cloudy with Rain 62 16.7 59 15 90 90 E 8 13 30.07 1018 4 6 0.16 4.06
4:53 pm 16:53 Cloudy with Light Rain 62 16.7 59 15 90 90 E 10 17 30.05 1018 8 13 0.06 1.52
5:20 pm 17:20 Cloudy with Light Rain 62 16.7 59 15 90 90 ENE 8 13 30.03 1017 9 14 0.01 0.25
5:53 pm 17:53 Cloudy with Light Rain 62 16.7 60 15.6 93 93 E 12 19 30.04 1017 7 11 0.03 0.76
6:53 pm 18:53 Cloudy with Rain 62 16.7 60 15.6 93 93 E 8 13 30.04 1017 6 10 0.09 2.29
7:53 pm 19:53 Cloudy with Rain 63 17.2 60 15.6 90 90 Calm 30.02 1017 6 10 0.10 2.54
8:45 pm 20:45 Cloudy with Heavy Rain 62 16.7 60 15.6 93 93 NNE 10 17 30.00 1016 2 3 0.46 11.68
8:53 pm 20:53 Cloudy with Heavy Rain 62 16.7 60 15.6 93 93 ENE 7 11 30.01 1016 2 3 0.66 16.76
9:00 pm 21:00 Cloudy with Heavy Rain 62 16.7 60 15.6 93 93 ENE 9 15 30.00 1016 2 3 0.10 2.54
9:04 pm 21:04 Cloudy with Heavy Rain 62 16.7 60 15.6 93 93 ENE 13 20 29.97 1015 3 5 0.13 3.30
9:30 pm 21:30 Cloudy with Heavy Rain 62 16.7 60 15.6 93 93 E 10 17 30.00 1016 3 4 0.38 9.65
9:44 pm 21:44 Cloudy with Heavy Rain 62 16.7 60 15.6 93 93 ENE 9 15 29.97 1015 2 3 0.62 15.75
9:50 pm 21:50 Cloudy with Heavy Rain 63 17 61 16 94 94 NE 9 15 30.00 1016 2 3 0.72 18.29
9:53 pm 21:53 Cloudy with Heavy Rain 62 16.7 60 15.6 93 93 E 9 15 30.01 1016 3 4 0.73 18.54
9:57 pm 21:57 Cloudy with Heavy Rain 62 16.7 60 15.6 93 93 E 7 11 30.00 1016 3 5 0.02 0.51
10:33 pm 22:33 Mostly Cloudy with Rain 62 16.7 60 15.6 93 93 E 9 15 29.97 1015 8 13 0.16 4.06
10:53 pm 22:53 Cloudy with Rain 62 16.7 60 15.6 93 93 E 12 19 29.98 1015 8 13 0.19 4.83
11:53 pm 23:53 Cloudy with Rain 62 16.7 60 15.6 93 93 E 14 22 29.95 1014 7 11 0.08 2.03

Powered by AerisWeather